When you browse on this site, cookies collect data to enhance your experience and personalize the content and advertising you see.
Visit our Privacy Policy to learn more. By continuing to use the site, you agree to this use of cookies and data.
  • în România
  • Lista ţărilor
  • Pe 7 zile
  • Temperatura apei
  • Meteo pe hartă
  • Widget-uri
  • user-avatar
    Intrare

    Meteo pe oră la Bristol

    Astăzi, 24 Ianuarie, Vineri

    Timp Temperatura Precipitaţii Vânt Presiune Umiditate
    00:00 +6°C° 0 mm 0 m/s 768 mmHg 93%
    01:00 +6°C° 0 mm 0 m/s 768 mmHg 93%
    02:00 +6°C° 0 mm 0 m/s 767 mmHg 93%
    03:00 +7°C° 0 mm 1 m/s 767 mmHg 93%
    04:00 +6°C° 0 mm 0 m/s 767 mmHg 93%
    05:00 +6°C° 0 mm 0 m/s 766 mmHg 94%
    06:00 +5°C° 0 mm 0 m/s 766 mmHg 93%
    07:00 +5°C° 0 mm 0 m/s 766 mmHg 93%
    08:00 +5°C° 0 mm 0 m/s 766 mmHg 93%
    09:00 +6°C° 0 mm 0 m/s 766 mmHg 93%
    10:00 +7°C° 0 mm 0 m/s 766 mmHg 89%
    11:00 +7°C° 0 mm 0 m/s 766 mmHg 86%
    12:00 +8°C° 0 mm 0 m/s 766 mmHg 84%
    13:00 +8°C° 0 mm 0 m/s 765 mmHg 84%
    14:00 +9°C° 0 mm 1 m/s 765 mmHg 84%
    15:00 +9°C° 0 mm 1 m/s 764 mmHg 83%
    16:00 +8°C° 0 mm 1 m/s 764 mmHg 86%
    17:00 +7°C° 0 mm 1 m/s 764 mmHg 89%
    18:00 +7°C° 0 mm 1 m/s 764 mmHg 92%
    19:00 +7°C° 0 mm 1 m/s 764 mmHg 92%
    20:00 +7°C° 0 mm 1 m/s 764 mmHg 92%
    21:00 +7°C° 0 mm 1 m/s 764 mmHg 91%
    22:00 +7°C° 0 mm 1 m/s 764 mmHg 91%
    23:00 +7°C° 0 mm 1 m/s 764 mmHg 91%

    Mâine, 25 Ianuarie, Sâmbătă

    Timp Temperatura Precipitaţii Vânt Presiune Umiditate
    00:00 +7°C° 0 mm 1 m/s 764 mmHg 91%
    01:00 +7°C° 0 mm 1 m/s 763 mmHg 91%
    02:00 +7°C° 0 mm 1 m/s 763 mmHg 92%
    03:00 +5°C° 0 mm 2 m/s 763 mmHg 92%
    04:00 +5°C° 0 mm 2 m/s 762 mmHg 93%
    05:00 +4°C° 0 mm 2 m/s 762 mmHg 93%
    06:00 +3°C° 0 mm 2 m/s 762 mmHg 94%
    07:00 +3°C° 0 mm 2 m/s 762 mmHg 94%
    08:00 +3°C° 0 mm 2 m/s 762 mmHg 94%
    09:00 +3°C° 0 mm 2 m/s 762 mmHg 94%
    10:00 +5°C° 0 mm 2 m/s 761 mmHg 91%
    11:00 +6°C° 0 mm 2 m/s 761 mmHg 89%
    12:00 +7°C° 0 mm 2 m/s 761 mmHg 86%
    13:00 +7°C° 0 mm 2 m/s 760 mmHg 88%
    14:00 +7°C° 0 mm 2 m/s 760 mmHg 90%
    15:00 +9°C° 0 mm 1 m/s 759 mmHg 92%
    16:00 +7°C° 0 mm 2 m/s 759 mmHg 93%
    17:00 +7°C° 0 mm 2 m/s 758 mmHg 94%
    18:00 +7°C° 0 mm 2 m/s 758 mmHg 95%
    19:00 +7°C° 0 mm 3 m/s 758 mmHg 95%
    20:00 +7°C° 0 mm 3 m/s 758 mmHg 96%
    21:00 +7°C° 0 mm 3 m/s 757 mmHg 96%
    22:00 +7°C° 0 mm 3 m/s 757 mmHg 96%
    23:00 +7°C° 0 mm 3 m/s 757 mmHg 97%

    Poimâine, 26 Ianuarie, Duminică

    Timp Temperatura Precipitaţii Vânt Presiune Umiditate
    00:00 +7°C° 0 mm 3 m/s 757 mmHg 97%
    01:00 +7°C° 0 mm 3 m/s 756 mmHg 96%
    02:00 +7°C° 0 mm 3 m/s 756 mmHg 95%
    03:00 +7°C° 0 mm 3 m/s 756 mmHg 94%
    04:00 +7°C° 0 mm 3 m/s 755 mmHg 94%
    05:00 +7°C° 0 mm 3 m/s 755 mmHg 93%
    06:00 +6°C° 0 mm 4 m/s 754 mmHg 92%
    07:00 +6°C° 0 mm 4 m/s 754 mmHg 91%
    08:00 +6°C° 0 mm 5 m/s 754 mmHg 90%
    09:00 +6°C° 0 mm 5 m/s 754 mmHg 89%
    10:00 +7°C° 0.3 mm 6 m/s 754 mmHg 89%
    11:00 +7°C° 0.3 mm 6 m/s 753 mmHg 88%
    12:00 +8°C° 0.3 mm 7 m/s 753 mmHg 88%
    13:00 +8°C° 1.2 mm 6 m/s 752 mmHg 90%
    14:00 +8°C° 1.2 mm 6 m/s 752 mmHg 92%
    15:00 +8°C° 1.2 mm 6 m/s 752 mmHg 94%
    16:00 +7°C° 0.6 mm 5 m/s 752 mmHg 93%
    17:00 +7°C° 0.6 mm 4 m/s 751 mmHg 93%
    18:00 +7°C° 0.6 mm 3 m/s 751 mmHg 93%
    19:00 +7°C° 0 mm 2 m/s 751 mmHg 93%
    20:00 +6°C° 0 mm 2 m/s 751 mmHg 94%
    21:00 +6°C° 0 mm 2 m/s 752 mmHg 94%
    22:00 +5°C° 0 mm 2 m/s 751 mmHg 94%
    23:00 +4°C° 0 mm 3 m/s 751 mmHg 94%

    27 Ianuarie, Luni

    Timp Temperatura Precipitaţii Vânt Presiune Umiditate
    00:00 +3°C° 0 mm 3 m/s 751 mmHg 94%
    01:00 +3°C° 0 mm 4 m/s 751 mmHg 93%
    02:00 +3°C° 0 mm 4 m/s 751 mmHg 92%
    03:00 +3°C° 0 mm 5 m/s 751 mmHg 91%
    04:00 +3°C° 0.2 mm 5 m/s 750 mmHg 90%
    05:00 +3°C° 0.2 mm 5 m/s 750 mmHg 90%
    06:00 +5°C° 0.2 mm 5 m/s 749 mmHg 90%
    07:00 +5°C° 0.1 mm 5 m/s 749 mmHg 90%
    08:00 +5°C° 0.1 mm 5 m/s 749 mmHg 89%
    09:00 +5°C° 0.1 mm 5 m/s 749 mmHg 89%
    10:00 +5°C° 0.3 mm 6 m/s 748 mmHg 87%
    11:00 +5°C° 0.3 mm 6 m/s 748 mmHg 84%
    12:00 +7°C° 0.3 mm 6 m/s 748 mmHg 81%
    13:00 +7°C° 0.4 mm 6 m/s 747 mmHg 81%
    14:00 +7°C° 0.4 mm 5 m/s 746 mmHg 81%
    15:00 +6°C° 0.4 mm 5 m/s 745 mmHg 82%
    16:00 +6°C° 0.4 mm 4 m/s 745 mmHg 84%
    17:00 +5°C° 0.4 mm 4 m/s 744 mmHg 86%
    18:00 +4°C° 0.4 mm 4 m/s 743 mmHg 89%
    19:00 +4°C° 0.2 mm 4 m/s 743 mmHg 89%
    20:00 +3°C° 0.2 mm 5 m/s 742 mmHg 89%
    21:00 +3°C° 0.2 mm 5 m/s 742 mmHg 90%
    22:00 +3°C° 0.2 mm 5 m/s 742 mmHg 88%
    23:00 +3°C° 0.2 mm 5 m/s 742 mmHg 86%

    28 Ianuarie, Marţi

    Timp Temperatura Precipitaţii Vânt Presiune Umiditate
    00:00 +2°C° 0.2 mm 6 m/s 741 mmHg 84%
    01:00 +2°C° 0.1 mm 6 m/s 742 mmHg 83%
    02:00 +1°C° 0.1 mm 6 m/s 743 mmHg 82%
    03:00 +1°C° 0.1 mm 6 m/s 743 mmHg 81%
    04:00 -1°C° 0 mm 6 m/s 744 mmHg 79%
    05:00 0°C° 0 mm 5 m/s 744 mmHg 78%
    06:00 0°C° 0 mm 5 m/s 745 mmHg 76%
    07:00 -1°C° 0 mm 6 m/s 745 mmHg 78%
    08:00 +1°C° 0 mm 6 m/s 745 mmHg 79%
    09:00 0°C° 0 mm 7 m/s 746 mmHg 80%
    10:00 +2°C° 0.2 mm 7 m/s 746 mmHg 77%
    11:00 +2°C° 0.2 mm 8 m/s 746 mmHg 74%
    12:00 +3°C° 0.2 mm 9 m/s 746 mmHg 72%
    13:00 +2°C° 0.4 mm 8 m/s 746 mmHg 77%
    14:00 +2°C° 0.4 mm 8 m/s 745 mmHg 81%
    15:00 +2°C° 0.4 mm 7 m/s 745 mmHg 86%
    16:00 +2°C° 0.3 mm 7 m/s 745 mmHg 88%
    17:00 +2°C° 0.3 mm 6 m/s 745 mmHg 89%
    18:00 +1°C° 0.3 mm 5 m/s 745 mmHg 91%
    19:00 +1°C° 0.1 mm 6 m/s 745 mmHg 87%
    20:00 -1°C° 0.1 mm 6 m/s 746 mmHg 83%
    21:00 -1°C° 0.1 mm 7 m/s 747 mmHg 78%
    22:00 -1°C° 0 mm 7 m/s 748 mmHg 77%
    23:00 -1°C° 0 mm 7 m/s 748 mmHg 75%

    29 Ianuarie, Miercuri

    Timp Temperatura Precipitaţii Vânt Presiune Umiditate
    00:00 -1°C° 0 mm 7 m/s 749 mmHg 74%
    01:00 -1°C° 0 mm 7 m/s 749 mmHg 75%
    02:00 0°C° 0 mm 7 m/s 750 mmHg 76%
    03:00 0°C° 0 mm 7 m/s 750 mmHg 77%
    04:00 0°C° 0 mm 7 m/s 750 mmHg 77%
    05:00 +1°C° 0 mm 6 m/s 751 mmHg 77%
    06:00 +1°C° 0 mm 6 m/s 751 mmHg 77%
    07:00 +1°C° 0 mm 6 m/s 752 mmHg 78%
    08:00 +1°C° 0 mm 6 m/s 752 mmHg 79%
    09:00 +1°C° 0 mm 6 m/s 752 mmHg 79%
    10:00 +2°C° 0 mm 6 m/s 753 mmHg 77%
    11:00 +3°C° 0 mm 7 m/s 753 mmHg 74%
    12:00 +4°C° 0 mm 8 m/s 753 mmHg 72%
    13:00 +4°C° 0 mm 7 m/s 753 mmHg 74%
    14:00 +5°C° 0 mm 7 m/s 754 mmHg 76%
    15:00 +5°C° 0 mm 7 m/s 754 mmHg 79%
    16:00 +4°C° 0.1 mm 6 m/s 754 mmHg 83%
    17:00 +5°C° 0.1 mm 5 m/s 754 mmHg 87%
    18:00 +5°C° 0.1 mm 4 m/s 754 mmHg 91%
    19:00 +5°C° 0.1 mm 5 m/s 754 mmHg 90%
    20:00 +5°C° 0.1 mm 6 m/s 754 mmHg 89%
    21:00 +5°C° 0.1 mm 7 m/s 754 mmHg 88%
    22:00 +5°C° 0 mm 7 m/s 754 mmHg 88%
    23:00 +5°C° 0 mm 7 m/s 754 mmHg 88%
    Arată mai mult